Location: Dillon
(41.1766°N, 107.0923°W)
Time: 12:57:10
(UTC+00:00)

AO-92 - Pass Details

Date: 30 June 2022
Orbit: 469 x 481 km, 97.4° (Epoch: 13 August)

Event Time Altitude Azimuth Distance (km) Brightness Sun altitude
Exits shadow 04:29:36 21° 94° (E) 1,128 ? -15.4°
Maximum altitude 04:30:32 23° 70° (ENE) 1,050 ? -15.5°
Drops below altitude 10° 04:33:25 10° 16° (NNE) 1,662 ? -15.9°
Sets 04:35:45 0° 2° (N) 2,550 ? -16.2°
